WORLDVIEW-4

Last updated on Wed Dec 01 2021 00:02:26 GMT+0000 (Coordinated Universal Time)

1 41848U 16067A 21334.19880693 .07289157 29045-5 20786-4 0 9993 2 41848 97.7650 148.0092 0015228 225.9629 247.4619 16.60370829279922

Satellite not in orbit